Olympia, WA

6:54 AM PDT on August 27, 2016 (GMT -0700)
Olympia

Weather History for KOLM - October, 2011

Change the Weather History Date:

Sunday, October 2, 2011

  Actual Average Record
Temperature  
Mean Temperature 54 °F 54 °F  
Max Temperature 64 °F 66 °F 80 °F (1980)
Min Temperature 44 °F 43 °F 30 °F (1950)
Degree Days  
Heating Degree Days 11 11  
Month to date heating degree days 23 21  
Since 1 July heating degree days 342 361  
Cooling Degree Days 0 0  
Month to date cooling degree days 0 0  
Year to date cooling degree days 59 106  
Growing Degree Days 4 (Base 50)    
Moisture  
Dew Point 49 °F    
Average Humidity 86    
Maximum Humidity 100    
Minimum Humidity 72    
Precipitation  
Precipitation 0.08 in 0.09 in 1.06 in (2007)
Month to date precipitation 0.11 0.17  
Year to date precipitation 33.07 29.48  
Sea Level Pressure  
Sea Level Pressure 29.93 in    
Wind  
Wind Speed 1 mph (SSE)    
Max Wind Speed 12 mph    
Max Gust Speed 15 mph    
Visibility 8 miles    
Events Rain    
T = Trace of Precipitation, MM = Missing Value Source: NWS Daily Summary

Daily Weather History Graph

Daily Weather History Graph

Search for Another Location

Airport or City:

Trip Planner

Search our weather history database for the weather conditions in past years. The results will help you decide how hot, cold, wet, or windy it might be!

Date:

Astronomy

Oct. 02, 2011 Rise Set
Actual Time 7:11 AM PDT 6:49 PM PDT
Civil Twilight 6:41 AM PDT 7:19 PM PDT
Nautical Twilight 6:05 AM PDT 7:55 PM PDT
Astronomical Twilight 5:29 AM PDT 8:30 PM PDT
Moon 1:45 PM PDT (10/2) 10:31 PM PDT (10/2)
Length of Visible Light 12h 38m
Length of Day
11h 38m
Waxing Crescent, 36% of the Moon is Illuminated
Oct 2
Waxing Crescent
Oct 3
First Quarter
Oct 11
Full
Oct 19
Last Quarter
Oct 26
New

Hourly Weather History & Observations

Time (PDT) Temp. Dew Point Humidity Pressure Visibility Wind Dir Wind Speed Gust Speed Precip Events Conditions
12:54 AM 46.0 °F 44.1 °F 93% 29.97 in 7.0 mi Calm Calm - N/A   Clear
12:58 AM 44.6 °F 44.6 °F 100% 29.97 in 2.5 mi Calm Calm - N/A   Partly Cloudy
1:13 AM 46.4 °F 44.6 °F 93% 29.97 in 3.0 mi Calm Calm - N/A   Scattered Clouds
1:29 AM 46.4 °F 44.6 °F 93% 29.97 in 1.8 mi Calm Calm - N/A   Mostly Cloudy
1:37 AM 46.4 °F 44.6 °F 93% 29.97 in 1.0 mi Calm Calm - N/A   Mostly Cloudy
1:41 AM 44.6 °F 44.6 °F 100% 29.97 in 2.0 mi Calm Calm - N/A   Mostly Cloudy
1:54 AM 45.0 °F 44.1 °F 97% 29.97 in 7.0 mi Calm Calm - N/A   Overcast
2:54 AM 45.0 °F 44.1 °F 97% 29.97 in 10.0 mi Calm Calm - N/A   Mostly Cloudy
3:54 AM 46.9 °F 46.0 °F 97% 29.97 in 10.0 mi Calm Calm - N/A   Overcast
4:54 AM 48.0 °F 46.0 °F 93% 29.96 in 10.0 mi Calm Calm - N/A   Overcast
5:54 AM 48.0 °F 45.0 °F 89% 29.95 in 10.0 mi Calm Calm - N/A   Overcast
6:33 AM 48.2 °F 46.4 °F 93% 29.95 in 10.0 mi Calm Calm - N/A   Overcast
6:42 AM 48.2 °F 46.4 °F 93% 29.96 in 10.0 mi Calm Calm - N/A   Overcast
6:50 AM 48.2 °F 48.2 °F 100% 29.95 in 10.0 mi Calm Calm - N/A   Overcast
6:54 AM 48.9 °F 48.0 °F 97% 29.96 in 10.0 mi Calm Calm - N/A   Overcast
7:54 AM 50.0 °F 48.0 °F 93% 29.95 in 3.0 mi Calm Calm - N/A   Overcast
8:54 AM 51.1 °F 48.9 °F 92% 29.95 in 3.0 mi NNE 3.5 mph - N/A   Overcast
9:41 AM 51.8 °F 50.0 °F 94% 29.95 in 10.0 mi NE 3.5 mph - N/A   Overcast
9:54 AM 53.1 °F 50.0 °F 89% 29.95 in 6.0 mi Calm Calm - N/A   Overcast
10:54 AM 55.0 °F 50.0 °F 83% 29.95 in 10.0 mi Calm Calm - N/A   Overcast
11:54 AM 55.9 °F 51.1 °F 84% 29.94 in 10.0 mi Calm Calm - 0.00 in   Mostly Cloudy
12:54 PM 59.0 °F 52.0 °F 78% 29.93 in 10.0 mi South 3.5 mph - N/A   Mostly Cloudy
1:54 PM 61.0 °F 52.0 °F 72% 29.91 in 10.0 mi South 4.6 mph - N/A   Scattered Clouds
2:54 PM 62.6 °F 53.6 °F 72% 29.89 in 10.0 mi South 4.6 mph - N/A   Partly Cloudy
3:54 PM 63.0 °F 53.1 °F 70% 29.88 in 10.0 mi Calm Calm - 0.00 in Rain Light Rain
4:54 PM 60.1 °F 55.0 °F 83% 29.88 in 10.0 mi SE 9.2 mph - 0.00 in Rain Light Rain
5:54 PM 60.1 °F 53.1 °F 78% 29.87 in 10.0 mi South 5.8 mph - 0.00 in   Overcast
6:54 PM 57.9 °F 53.1 °F 84% 29.86 in 10.0 mi Calm Calm - N/A   Overcast
7:54 PM 57.0 °F 54.0 °F 89% 29.86 in 10.0 mi Calm Calm - 0.00 in   Overcast
8:54 PM 57.0 °F 54.0 °F 89% 29.86 in 10.0 mi Calm Calm - 0.01 in Rain Light Rain
9:54 PM 55.9 °F 52.0 °F 87% 29.84 in 10.0 mi Calm Calm - 0.02 in Rain Light Rain
10:54 PM 55.0 °F 53.1 °F 93% 29.84 in 10.0 mi Calm Calm - 0.00 in Rain Light Rain
11:54 PM 54.0 °F 53.1 °F 97% 29.83 in 10.0 mi Calm Calm - 0.03 in Rain Light Rain